Tracking 18980 objects as of 23-Feb-2018
HD Live streaming from Space Station
objects crossing your sky now

COSMOS 1860

Track COSMOS 1860 now!
10-day predictions
COSMOS 1860 is classified as:


NORAD ID: 18122
Int'l Code: 1987-052A
Perigee: 926.8 km
Apogee: 981.3 km
Inclination: 65.0 °
Period: 104.0 minutes
Semi major axis: 7325 km
RCS: 2.8634 m2 (large)
Launch date: June 18, 1987
Source: Commonwealth of Independent States (former USSR) (CIS)
Launch site: TYURATAM MISSILE AND SPACE COMPLEX (TTMTR)
aabbcc
Your satellite tracking list
Your tracking list is empty




NASA's NSSDC Master Catalog

Two Line Element Set (TLE):
1 18122U 87052A   18054.34907504 -.00000079  00000-0  89402-5 0  9991
2 18122  65.0124 339.4371 0037207 139.6486 220.7346 13.84808759552605
Source of the keplerian elements: AFSPC